Location: Milo
(50.5667°N, 112.8833°W)
Time: 02:29:39
(UTC+00:00)

ISS - Pass Details

Date: 05 December 2021
Orbit: 413 x 422 km, 51.6° (Epoch: 22 January)

Event Time Altitude Azimuth Distance (km) Brightness Sun altitude
Rises 00:33:49 0° 285° (WNW) 2,387 1.0 -9.9°
Reaches altitude 10° 00:35:56 10° 283° (WNW) 1,518 -0.1 -10.2°
Maximum altitude 00:39:20 74° 199° (SSW) 445 -3.6 -10.7°
Drops below altitude 10° 00:42:43 10° 114° (ESE) 1,507 -1.4 -11.2°
Enters shadow 00:42:52 - 114° (ESE) 1,569 -1.3 -11.2°
